Mineral Wells, TX

9:53 AM CDT on June 27, 2017 (GMT -0500)
Mineral Wells

Weather History for KMWL - September, 2013

Change the Weather History Date:

Saturday, September 21, 2013

  Actual Average Record
Temperature  
Mean Temperature 70 °F -  
Max Temperature 82 °F 85 °F 98 °F (1998)
Min Temperature 57 °F 62 °F 55 °F (2002)
Cooling Degree Days 4    
Growing Degree Days 20 (Base 50)    
Moisture  
Dew Point 52 °F    
Average Humidity 62    
Maximum Humidity 93    
Minimum Humidity 26    
Precipitation  
Precipitation 0.00 in - - ()
Sea Level Pressure  
Sea Level Pressure 29.93 in    
Wind  
Wind Speed 7 mph (North)    
Max Wind Speed 12 mph    
Max Gust Speed 18 mph    
Visibility 10 miles    
Events      
Averages and records for this station are not official NWS values.
T = Trace of Precipitation, MM = Missing Value Source: NWS Daily Summary

Daily Weather History Graph

Daily Weather History Graph

Search for Another Location

Airport or City:

Trip Planner

Search our weather history database for the weather conditions in past years. The results will help you decide how hot, cold, wet, or windy it might be!

Date:

Astronomy

Sep. 21, 2013 Rise Set
Actual Time 7:19 AM CDT 7:29 PM CDT
Civil Twilight 6:55 AM CDT 7:54 PM CDT
Nautical Twilight 6:26 AM CDT 8:23 PM CDT
Astronomical Twilight 5:57 AM CDT 8:52 PM CDT
Moon 8:52 PM CDT (9/21) 9:30 AM CDT (9/21)
Length of Visible Light 12h 59m
Length of Day
12h 09m
Waning Gibbous, 94% of the Moon is Illuminated
Sep 21
Waning Gibbous
Sep 26
Last Quarter
Oct 4
New
Oct 11
First Quarter
Oct 18
Full

Hourly Weather History & Observations

Time (CDT) Temp. Dew Point Humidity Pressure Visibility Wind Dir Wind Speed Gust Speed Precip Events Conditions
12:53 AM 64.9 °F 62.1 °F 90% 29.95 in 10.0 mi North 6.9 mph - N/A   Clear
1:53 AM 63.0 °F 60.1 °F 90% 29.94 in 10.0 mi NNW 5.8 mph - N/A   Clear
2:53 AM 61.0 °F 59.0 °F 93% 29.95 in 10.0 mi NNW 6.9 mph - N/A   Clear
3:53 AM 60.1 °F 57.0 °F 90% 29.94 in 10.0 mi NNW 6.9 mph - N/A   Clear
4:53 AM 60.1 °F 57.0 °F 90% 29.95 in 10.0 mi North 5.8 mph - N/A   Clear
5:53 AM 57.9 °F 55.9 °F 93% 29.95 in 10.0 mi NNW 6.9 mph - N/A   Clear
6:53 AM 57.0 °F 55.0 °F 93% 29.98 in 10.0 mi NNW 4.6 mph - N/A   Clear
7:53 AM 57.0 °F 55.0 °F 93% 29.99 in 10.0 mi NNW 4.6 mph - N/A   Clear
8:53 AM 62.1 °F 55.0 °F 78% 29.99 in 10.0 mi North 10.4 mph - N/A   Clear
9:53 AM 66.9 °F 54.0 °F 63% 30.00 in 10.0 mi NNE 11.5 mph - N/A   Clear
10:53 AM 71.1 °F 51.1 °F 49% 29.99 in 10.0 mi North 11.5 mph - N/A   Clear
11:53 AM 73.9 °F 48.9 °F 41% 29.98 in 10.0 mi NNE 9.2 mph - N/A   Clear
12:53 PM 75.9 °F 50.0 °F 40% 29.96 in 10.0 mi North 9.2 mph - N/A   Clear
1:53 PM 79.0 °F 50.0 °F 36% 29.94 in 10.0 mi North 6.9 mph - N/A   Clear
2:53 PM 81.0 °F 48.9 °F 33% 29.91 in 10.0 mi NNE 5.8 mph 16.1 mph N/A   Clear
3:53 PM 81.0 °F 48.0 °F 31% 29.88 in 10.0 mi North 8.1 mph 18.4 mph N/A   Clear
4:53 PM 82.0 °F 46.9 °F 29% 29.87 in 10.0 mi NNE 11.5 mph - N/A   Clear
5:53 PM 82.0 °F 44.1 °F 26% 29.86 in 10.0 mi North 9.2 mph - N/A   Clear
6:53 PM 79.0 °F 44.1 °F 29% 29.86 in 10.0 mi North 8.1 mph - N/A   Clear
7:53 PM 73.9 °F 46.0 °F 37% 29.86 in 10.0 mi Calm Calm - N/A   Clear
8:53 PM 68.0 °F 51.1 °F 55% 29.88 in 10.0 mi Calm Calm - N/A   Clear
9:53 PM 64.9 °F 52.0 °F 63% 29.88 in 10.0 mi Calm Calm - N/A   Clear
10:53 PM 62.1 °F 51.1 °F 67% 29.88 in 10.0 mi Calm Calm - N/A   Clear
11:53 PM 61.0 °F 52.0 °F 72% 29.88 in 10.0 mi Calm Calm - N/A   Clear